Volver al catálogo

STARLINK-37739

ActivoComunicacionesSSO
NORAD 69233·PAYLOAD·🇺🇸 United States

Lanzado May 26, 2026 desde Vandenberg Space Force Base

Loading…

Próximos Pases (próximas 24 horas)

TLE

ActualizadoSource: CelesTrak SupGP

Época: Sep 15, 2026, 04:28 UTC

1 69233C 26115Y   26258.18659722 -.00058686  00000+0 -18220-2 0  2588
2 69233  97.2832 274.4133 0001443  93.6796 129.7470 15.33463807    13

Sigue STARLINK-37739 en tiempo real con AllMySat

Download on the App Store